Regional Weather Roundup
Issued by NWS

Home | Current Version | Previous Version | Text Only | Print | Product List | Glossary On
Versions: 1 2 3 4 5 6 7 8 9 10 11 12 13 14 15 16 17 18 19 20 21 22 23 24 25 26 27 28 29 30 31 32 33 34 35 36 37 38 39 40 41 42 43 44 45 46 47 48 49 50
000
ASUS43 KMKX 022324
RWRWI

WISCONSIN REGIONAL WEATHER ROUNDUP
NATIONAL WEATHER SERVICE MILWAUKEE/SULLIVAN WI
600 PM CDT TUE JUN 02 2015

NOTE: "FAIR" INDICATES FEW OR NO CLOUDS BELOW 12,000 FEET WITH NO
SIGNIFICANT WEATHER AND/OR OBSTRUCTIONS TO VISIBILITY.

WIZ001-002-006>008-014>016-023>028-030000-
NORTHWEST WISCONSIN

CITY           SKY/WX    TMP DP  RH WIND       PRES   REMARKS
SUPERIOR ARPT  PTSUNNY   51  40  66 NE5       29.95S
ASHLAND        MOSUNNY   75  49  39 S10       29.94F
HAYWARD        PTSUNNY   74  48  39 S14       29.96F
SIREN          PTSUNNY   72  51  48 S13       29.94S
CUMBERLAND     PTSUNNY   70  50  49 S17       29.97S
RICE LAKE      PTSUNNY   73  49  41 S15       29.98S
CHETEK         PTSUNNY   71  51  48 SE13G18   29.97F
LADYSMITH      MOSUNNY   72  47  41 SE9       30.01F
EAU CLAIRE     PTSUNNY   73  51  46 S17       29.98F
MENOMONIE      MOSUNNY   73  51  46 SE13G22   29.98F
NEW RICHMOND   PTSUNNY   72  52  49 S17       29.96F
OSCEOLA        PTSUNNY   75  52  43 S17       29.96F
$$

WIZ003>005-009-010-017-018-030000-
NORTH CENTRAL WISCONSIN

CITY           SKY/WX    TMP DP  RH WIND       PRES   REMARKS
MANITOWISH WTR SUNNY     71  36  27 S14G20    30.00F
ARBOR VITAE    SUNNY     72  35  25 S15       30.01F
WOODRUFF       SUNNY     72  35  25 S15       30.01F
RHINELANDER    SUNNY     71  36  27 S9        30.04F
EAGLE RIVER    SUNNY     71  31  23 S8        30.02F
LAND O LAKES   SUNNY     73  31  21 S12       30.02F
PHILLIPS       PTSUNNY   69  44  41 S16       30.01S
TOMAHAWK       SUNNY     69  40  35 S3        30.04S
MEDFORD        SUNNY     67  43  41 S9        30.03F
MERRILL        SUNNY     71  37  28 SW10      30.04F
$$

WIZ029-030-035-036-043>047-030000-
CENTRAL WISCONSIN

CITY           SKY/WX    TMP DP  RH WIND       PRES   REMARKS
WAUSAU         SUNNY     72  40  31 S10       30.02F
MOSINEE        SUNNY     70  39  32 S10       30.04F
MARSHFIELD     MOSUNNY   72  41  32 S13       30.03F
STEVENS POINT  SUNNY     71  41  33 S12       30.04F
WAUPACA        SUNNY     74  40  29 SE10      30.06F
WAUTOMA        SUNNY     74  40  29 SE10      30.06F
WISC RAPIDS    SUNNY     74  39  28 S10       30.04F
CAMP DOUGLAS   PTSUNNY   72  43  35 S9        30.03F
$$

WIZ011>013-019>022-031-037>040-048>050-030000-
NORTHEAST WISCONSIN

CITY           SKY/WX    TMP DP  RH WIND       PRES   REMARKS
ANTIGO         SUNNY     67  44  43 S10       30.05F
SHAWANO        SUNNY     73  40  31 S6        30.06F
OCONTO         MOSUNNY   67  42  39 SE9       30.08F
STURGEON BAY   MOSUNNY   64  36  34 S13       30.12S
GREEN BAY      SUNNY     69  38  32 S14       30.08F
MANITOWOC      SUNNY     62  38  40 S9        30.11F
APPLETON       SUNNY     70  34  26 S10       30.09F
CLINTONVILLE   SUNNY     70  41  35 S10       30.06F
OSHKOSH        SUNNY     70  38  31 SE9       30.07F
$$

WIZ032>034-041-042-053>061-030000-
SOUTHWEST WISCONSIN

CITY           SKY/WX    TMP DP  RH WIND       PRES   REMARKS
LA CROSSE      CLOUDY    75  50  41 S12       30.00F
SPARTA         PTSUNNY   74  44  34 SE10      30.03F
VIROQUA        CLOUDY    72  47  42 S12       30.05F
BOSCOBEL       PTSUNNY   73  49  42 VRB6      30.04F
PRAIRIE DU CHI CLOUDY    73  47  39 S7        30.02F
PLATTEVILLE    PTSUNNY   71  49  46 S7        30.06S
$$

WIZ056-057-062-063-064-067-068-030000-
SOUTH CENTRAL WISCONSIN

CITY           SKY/WX    TMP DP  RH WIND       PRES   REMARKS
REEDSBURG      MOSUNNY   71  46  40 SE6       30.05F
BARABOO/DELLS  MOSUNNY   70  45  40 S5        30.06S
LONE ROCK      MOSUNNY   72  41  32 SE10      30.05F
MINERAL POINT  MOSUNNY   72  37  28 SE7       30.06F
MADISON        PTSUNNY   72  43  35 S8        30.06F
MIDDLETON      SUNNY     74  38  27 S7        30.06F
WATERTOWN      SUNNY     72  46  38 S8        30.06F
MONROE         MOSUNNY   72  45  37 S13       30.06F
JANESVILLE     SUNNY     73  41  31 SW6       30.05F
$$

WIZ051-052-058>065-066-070>072-030000-
SOUTHEAST WISCONSIN

CITY           SKY/WX    TMP DP  RH WIND       PRES   REMARKS
MILWAUKEE      PTSUNNY   63  38  39 SE8       30.10F
WAUKESHA       SUNNY     64  39  39 E9        30.10F
MILWAUKEE/TIMM SUNNY     64  39  39 E7        30.11F
RACINE         SUNNY     62  44  51 SE7       30.12F
BURLINGTON     SUNNY     67  46  46 E9        30.09S
KENOSHA        SUNNY     65  42  43 SE8       30.10F
FOND DU LAC    SUNNY     69  40  34 SE12      30.08F
SHEBOYGAN      SUNNY     62  42  47 S9        30.11F
WEST BEND      SUNNY     64  37  36 E7        30.10F
JUNEAU         SUNNY     70  47  43 E10       30.08F
$$

LSZ147-162-030000-
LAKE SUPERIOR

STATION/POSITION TIME  TEMP    WIND        PRES    WAVE
                       AIR SEA DIR/SP/G            HT/PER
                 (UTC) (F)     (DEG/KT/KT) (MB)    (FT/S)
W MID LAKE BUOY  2250   43 37   90/ 10/ 12   N/A     1
DEVILS ISLAND    2300          120/ 10/ 12   N/A
PORT WING        2200   47      30/ 14/ 16   N/A
SAXON HARBOR     2200   77     200/  8/ 14   N/A
$$

LMZ867-665-643>646-030000-
LAKE MICHIGAN

STATION/POSITION TIME  TEMP    WIND        PRES    WAVE
                       AIR SEA DIR/SP/G            HT/PER
                 (UTC) (F)     (DEG/KT/KT) (MB)    (FT/S)
CHAMBERS ISLAND  2200   67     150/  6/ 12   N/A
N MID LAKE BUOY  2250   44 38  190/  4/  6   N/A     0
NORTHPORT PIER   2200   60     140/  7/ 10   N/A
SISTER BAY       2218   66     180/ 12/ 16   N/A
ALGOMA LAKESHORE 2209          220/  9/ 10   N/A
KEWAUNEE LAKESHO 2300   53     180/  9/ 12   N/A
SHEBOYGAN LAKESH 2300   55     170/ 12/ 12   N/A
PORT WASHINGTON  2240   54     120/  3/  4   N/A
ATWATER BUOY     2300   48 49   20/  4/  6   N/A
MILWAUKEE LAKESH 2300   50      40/  5/  6   N/A
S MID LAKE BUOY  2250   45 39  350/  6/  6   N/A
KENOSHA   LAKESH 2300   53      60/  3/  4   N/A
$$

TC  - TEMPERATURE IN CELSIUS
VSB - VISIBILITY IN STATUTE MILES
WCI - WIND CHILL INDEX
HX  - HEAT INDEX




USA.gov is the U.S. government's official web portal to all federal, state and local government web resources and services.